Location: Unspecified
(42.9300°N, 71.1866°W)
Time: 12:35:23
(UTC-04:00)

Envisat - Visible Passes

Search period start: 24 July 2017 00:00
Search period end: 03 August 2017 00:00
Orbit: 764 x 766 km, 98.2° (Epoch: 23 July)

Date Brightness Start Highest point End Pass type
(mag) Time Alt. Az. Time Alt. Az. Time Alt. Az.
24 Jul 3.5 20:53:40 10° S 20:58:41 63° W 21:03:44 10° NNW visible
25 Jul 5.5 21:58:14 10° SW 22:01:25 17° W 22:04:37 10° NW visible
26 Jul 4.5 21:19:46 10° SSW 21:24:24 36° W 21:29:04 10° NNW visible
27 Jul 3.2 20:42:30 10° S 20:47:35 79° WSW 20:52:41 10° NNW visible
28 Jul 5.3 21:46:27 10° SW 21:50:13 21° W 21:54:01 10° NW visible
29 Jul 4.1 21:08:25 10° S 21:13:15 45° W 21:18:08 10° NNW visible
30 Jul 5.7 22:14:24 10° WSW 22:16:08 12° W 22:17:54 10° WNW visible
31 Jul 5.0 21:34:49 10° SSW 21:39:02 26° W 21:43:16 10° NW visible
01 Aug 3.6 20:57:09 10° S 21:02:08 57° W 21:07:09 10° NNW visible
02 Aug 5.6 22:02:02 10° SW 22:04:55 15° W 22:07:47 10° NW visible
